Richmond, VA

3:09 PM EDT on June 28, 2017 (GMT -0400)
Richmond International

Weather History for KRIC - November, 2013

Change the Weather History Date:

Wednesday, November 20, 2013

  Actual Average Record
Temperature  
Mean Temperature 44 °F 49 °F  
Max Temperature 51 °F 60 °F 80 °F (1913)
Min Temperature 36 °F 38 °F 21 °F (1951)
Degree Days  
Heating Degree Days 21 16  
Month to date heating degree days 266 263  
Since 1 July heating degree days 416 496  
Cooling Degree Days 0 0  
Month to date cooling degree days 8 0  
Year to date cooling degree days 1678 1543  
Moisture  
Dew Point 29 °F    
Average Humidity 61    
Maximum Humidity 79    
Minimum Humidity 42    
Precipitation  
Precipitation 0.00 in 0.11 in 1.79 in (1952)
Month to date precipitation 0.48 2.15  
Year to date precipitation 44.99 39.25  
Snow  
Snow 0.00 in 0.00 in T in (1947)
Month to date snowfall T 0.1  
Since 1 July snowfall T 0.1  
Snow Depth 0.00 in    
Sea Level Pressure  
Sea Level Pressure 30.48 in    
Wind  
Wind Speed 8 mph (NNE)    
Max Wind Speed 16 mph    
Max Gust Speed 21 mph    
Visibility 10 miles    
Events      
T = Trace of Precipitation, MM = Missing Value Source: NWS Daily Summary

Daily Weather History Graph

Daily Weather History Graph

Search for Another Location

Airport or City:

Trip Planner

Search our weather history database for the weather conditions in past years. The results will help you decide how hot, cold, wet, or windy it might be!

Date:

Astronomy

Nov. 20, 2013 Rise Set
Actual Time 6:54 AM EST 4:55 PM EST
Civil Twilight 6:26 AM EST 5:23 PM EST
Nautical Twilight 5:54 AM EST 5:55 PM EST
Astronomical Twilight 5:23 AM EST 6:26 PM EST
Moon 7:36 PM EST (11/20) 9:17 AM EST (11/20)
Length of Visible Light 10h 57m
Length of Day
10h 00m
Waning Gibbous, 91% of the Moon is Illuminated
Nov 20
Waning Gibbous
Nov 25
Last Quarter
Dec 2
New
Dec 9
First Quarter
Dec 17
Full

Hourly Weather History & Observations

Time (EST) Temp. Windchill Dew Point Humidity Pressure Visibility Wind Dir Wind Speed Gust Speed Precip Events Conditions
12:54 AM 39.9 °F 33.9 °F 25.0 °F 55% 30.40 in 10.0 mi NNW 9.2 mph - N/A   Mostly Cloudy
1:54 AM 39.0 °F 33.4 °F 25.0 °F 57% 30.40 in 10.0 mi North 8.1 mph - N/A   Overcast
2:54 AM 37.9 °F 31.5 °F 25.0 °F 60% 30.42 in 10.0 mi North 9.2 mph - N/A   Mostly Cloudy
3:54 AM 37.9 °F 32.1 °F 25.0 °F 60% 30.43 in 10.0 mi North 8.1 mph - N/A   Mostly Cloudy
4:54 AM 37.0 °F 31.0 °F 25.0 °F 62% 30.44 in 10.0 mi North 8.1 mph - N/A   Overcast
5:54 AM 36.0 °F 30.3 °F 25.0 °F 64% 30.45 in 10.0 mi North 6.9 mph - N/A   Overcast
6:54 AM 36.0 °F 29.6 °F 25.0 °F 64% 30.48 in 10.0 mi North 8.1 mph - N/A   Mostly Cloudy
7:54 AM 37.0 °F 29.3 °F 25.0 °F 62% 30.49 in 10.0 mi NNE 11.5 mph - N/A   Mostly Cloudy
8:54 AM 42.1 °F 35.7 °F 25.0 °F 51% 30.52 in 10.0 mi NNE 11.5 mph - N/A   Mostly Cloudy
9:54 AM 44.1 °F 39.5 °F 27.0 °F 51% 30.54 in 10.0 mi NNE 8.1 mph - N/A   Mostly Cloudy
10:54 AM 46.0 °F 40.6 °F 28.0 °F 50% 30.54 in 10.0 mi ENE 11.5 mph - N/A   Scattered Clouds
11:54 AM 48.9 °F - 28.0 °F 44% 30.51 in 10.0 mi NNE 9.2 mph - N/A   Partly Cloudy
12:54 PM 50.0 °F - 28.0 °F 43% 30.48 in 10.0 mi NE 6.9 mph - N/A   Partly Cloudy
1:54 PM 50.0 °F - 30.0 °F 46% 30.48 in 10.0 mi East 5.8 mph 17.3 mph N/A   Scattered Clouds
2:54 PM 50.0 °F - 30.9 °F 48% 30.47 in 10.0 mi ENE 9.2 mph - N/A   Scattered Clouds
3:54 PM 48.9 °F - 32.0 °F 52% 30.48 in 10.0 mi ENE 8.1 mph - N/A   Mostly Cloudy
4:54 PM 46.0 °F 43.9 °F 33.1 °F 61% 30.50 in 10.0 mi ENE 4.6 mph - N/A   Mostly Cloudy
5:54 PM 45.0 °F 40.6 °F 33.1 °F 63% 30.51 in 10.0 mi NE 8.1 mph - N/A   Mostly Cloudy
6:54 PM 44.1 °F 39.5 °F 33.1 °F 65% 30.51 in 10.0 mi NE 8.1 mph - N/A   Overcast
7:54 PM 43.0 °F 40.3 °F 32.0 °F 65% 30.52 in 10.0 mi NE 4.6 mph - N/A   Scattered Clouds
8:54 PM 41.0 °F 38.0 °F 33.1 °F 73% 30.53 in 10.0 mi North 4.6 mph - N/A   Scattered Clouds
9:54 PM 39.9 °F 35.8 °F 32.0 °F 73% 30.53 in 10.0 mi NE 5.8 mph - N/A   Scattered Clouds
10:54 PM 39.9 °F 35.8 °F 33.1 °F 77% 30.53 in 10.0 mi NNE 5.8 mph - N/A   Mostly Cloudy
11:54 PM 39.9 °F 34.5 °F 33.1 °F 77% 30.53 in 10.0 mi NNE 8.1 mph - N/A   Mostly Cloudy